[[{"header":{"parameterUnit":"m.s-1","parameterCategory":1,"la1":30.2991,"la2":30.254,"lo1":-89.0895,"lo2":-89.0444,"dy":0.0017,"dx":0.0017,"nx":28,"ny":28,"refTime":"2025-12-27T09:00:00:Z","depth":0,"parameterNumber":2,"parameterNumberName":"U-component_of_WINDS"},"data":[0,0,0,0,0,0,0,0,0,0,0,0,0,0,0,0,0,0,0,0,0,0,0,0,0,0,0,0,0,0,0,0,0,0,0,0,0,0,0,0,0,0,0,0,0,0,0,0,0,0,0,0,0,0,0,0,0,0,2.4614,2.4614,0,2.4626,2.4626,2.4626,2.4578,2.4576,2.4575,2.4573,2.459,2.4592,2.4594,0,0,0,0,0,0,0,0,0,0,0,0,0,2.4555,2.4556,2.4614,2.4614,2.4614,2.4626,2.4626,2.4626,2.4578,2.4576,2.4574,2.4573,2.459,2.4592,2.4594,0,0,0,0,0,0,0,0,0,0,0,0,0,2.4575,2.4556,2.4614,2.4591,2.4589,2.4626,2.4626,2.4626,2.4578,2.4576,2.4574,2.4572,2.4589,2.4592,2.4594,2.4655,0,0,2.4603,2.4604,0,0,0,0,0,0,0,0,2.4574,2.4577,2.4595,2.4593,2.4591,2.4598,2.4611,2.4636,2.4579,2.4583,2.4573,2.4571,2.4595,2.4597,2.4604,2.4655,2.4656,2.4603,2.4605,2.4606,2.4606,0,0,0,0,0,0,0,2.4573,2.4577,2.4619,2.4595,2.4593,2.4583,2.4583,2.4616,2.4601,2.4582,2.4579,2.458,2.4594,2.4602,2.4604,2.4656,2.4603,2.4605,2.4607,2.4608,2.476,2.4762,0,0,0,0,0,0,2.4573,2.4576,2.4618,2.4619,2.4577,2.4585,2.4586,2.4598,2.46,2.4599,2.4582,2.4578,2.4598,2.4601,2.4605,2.4677,2.4606,2.4608,2.461,2.4758,2.4761,2.4763,0,0,0,0,0,0,2.4572,2.4578,2.4618,2.4596,2.4601,2.4589,2.4603,2.4599,2.4607,2.4601,2.4598,2.4593,2.4597,2.4601,2.4643,2.4677,2.4609,2.4612,2.4755,2.4759,2.4762,2.4821,0,0,0,0,0,0,2.4571,2.4578,2.4599,2.4597,2.4602,2.4654,2.4605,2.4601,2.4612,2.4606,2.461,2.4609,2.4595,2.4639,2.4645,2.4679,2.4614,2.4752,2.4757,2.4761,2.4816,2.4826,2.4835,0,0,0,0,0,2.4569,2.4615,2.46,2.4606,2.4628,2.4656,2.4659,2.4642,2.4614,2.4637,2.4633,2.4608,2.4672,2.4644,2.4651,2.4686,2.475,2.4755,2.4761,2.4812,2.4824,2.4834,0,0,0,0,0,0,2.4623,2.4615,2.4598,2.4645,2.4651,2.4648,2.4675,2.4655,2.4671,2.4665,2.4644,2.4645,2.4692,2.4693,2.4661,2.4745,2.4706,2.4713,2.4743,2.4755,2.4764,2.4763,2.4616,0,0,0,0,0,2.464,2.4661,2.4654,2.4696,2.4701,2.4688,2.4699,2.4685,2.4692,2.4695,2.4693,2.4702,2.4724,2.4739,2.4759,2.4816,2.4817,2.4843,2.4853,2.4861,2.4867,2.49,2.4912,2.4781,2.4781,2.4781,0,0,2.4676,2.4674,2.4689,2.4707,2.4711,2.4736,2.469,2.4718,2.4737,2.4699,2.4739,2.4739,2.4747,2.4797,2.4819,2.48,2.4904,2.4868,2.4874,2.4876,2.4907,2.4919,2.493,2.4785,2.4784,2.4784,0,0,2.4754,2.4754,2.479,2.4795,2.48,2.4791,2.48,2.48,2.4798,2.4837,2.481,2.4833,2.4871,2.4879,2.4888,2.4971,2.4951,2.4979,2.5028,2.506,2.507,2.5079,2.5111,2.5122,2.4985,2.4985,2.4985,0,2.4798,2.4833,2.4812,2.4842,2.4852,2.4817,2.4855,2.4861,2.4874,2.4882,2.486,2.4908,2.4911,2.4963,2.4984,2.4992,2.5003,2.4978,2.507,2.5079,2.5087,2.5117,2.5129,2.4989,2.4988,2.4988,2.4988,0,2.4888,2.4913,2.4942,2.4954,2.4967,2.5001,2.4987,2.5003,2.4988,2.4983,2.5024,2.5027,2.5048,2.5059,2.5045,2.511,2.5098,2.5073,2.5034,2.5104,2.5132,2.5143,2.4994,2.4993,2.4992,2.4991,0,0,2.5,2.5,2.5011,2.5017,2.5022,2.5041,2.5075,2.5094,2.5109,2.5119,2.5148,2.5182,2.516,2.517,2.5157,2.5185,2.5253,2.5157,2.5157,2.5176,2.5327,2.5347,2.536,2.5239,2.5241,2.5243,2.5327,0,2.5078,2.5133,2.5116,2.5173,2.5197,2.5166,2.5195,2.5203,2.5199,2.522,2.5217,2.5241,2.5209,2.5215,2.5241,2.5239,2.5284,2.5233,2.5268,2.5269,2.5267,2.5374,2.5394,2.5474,2.5338,2.534,2.5341,0,2.5176,2.5189,2.5248,2.525,2.526,2.5286,2.5303,2.5323,2.5332,2.5328,2.534,2.5322,2.5357,2.5317,2.5367,2.5333,2.5347,2.5348,2.5351,2.5355,2.531,2.5382,2.5499,2.5511,2.5358,2.5356,2.5355,0,2.5253,2.5286,2.5326,2.5332,2.5335,2.5355,2.5357,2.5363,2.5377,2.5392,2.5401,2.5421,2.5433,2.545,2.5439,2.5411,2.5492,2.545,2.5491,2.5492,2.551,2.5509,2.5632,2.5517,2.5517,2.5517,2.5516,0,2.5342,2.538,2.5361,2.5386,2.5428,2.5409,2.5452,2.5451,2.5458,2.5483,2.5458,2.5483,2.5467,2.5491,2.5483,2.5527,2.5532,2.5531,2.5529,2.5534,2.5534,2.5543,2.5538,2.552,2.5519,2.5518,2.5518,0,2.5436,2.5424,2.5466,2.5466,2.5467,2.5498,2.5499,2.5523,2.5518,2.5551,2.5558,2.555,2.5578,2.5568,2.5598,2.5593,2.5649,2.5639,2.5646,2.5644,2.5686,2.5683,2.5819,2.5837,2.571,2.5711,2.5712,0,2.5494,2.5522,2.5525,2.554,2.5544,2.5568,2.5582,2.5565,2.558,2.5593,2.5617,2.5642,2.5661,2.5707,2.5706,2.5729,2.5721,2.5767,2.5724,2.5729,2.5723,2.5722,2.5726,2.5776,2.5777,2.5778,2.5779,0,2.5599,2.5592,2.5611,2.563,2.5646,2.566,2.5672,2.5686,2.567,2.5689,2.5716,2.5732,2.5762,2.5789,2.581,2.5815,2.5796,2.5793,2.5804,2.581,2.5813,2.5814,2.5671,2.579,2.5789,2.5788,2.5788,2.5787,2.5677,2.5702,2.5708,2.5731,2.5738,2.575,2.5773,2.5771,2.5793,2.5816,2.5805,2.5838,2.5848,2.5875,2.5883,2.5909,2.5892,2.5907,2.5911,2.5916,2.5922,2.5808,2.5913,2.5913,2.5912,2.5912,2.5912,0,2.5782,2.5785,2.5806,2.5823,2.5842,2.5821,2.5833,2.5851,2.5879,2.589,2.591,2.5943,2.5968,2.5969,2.5994,2.6016,2.6008,2.6023,2.6022,2.6024,2.5935,2.5924,2.6029,2.6029,2.6029,2.6029,2.6029,2.6029,2.5839,2.5879,2.5874,2.5919,2.5922,2.5952,2.5961,2.5973,2.5982,2.6019,2.604,2.604,2.6048,2.6073,2.6097,2.6097,2.6108,2.6127,2.6124,2.6041,2.603,2.6018,2.6008,2.6129,2.6129,2.621,2.6211,2.6211]},{"header":{"parameterUnit":"m.s-1","parameterCategory":1,"la1":30.2991,"la2":30.254,"lo1":-89.0895,"lo2":-89.0444,"dy":0.0017,"dx":0.0017,"nx":28,"ny":28,"refTime":"2025-12-27T09:00:00:Z","depth":0,"parameterNumber":3,"parameterNumberName":"V-component_of_WINDS"},"data":[0,0,0,0,0,0,0,0,0,0,0,0,0,0,0,0,0,0,0,0,0,0,0,0,0,0,0,0,0,0,0,0,0,0,0,0,0,0,0,0,0,0,0,0,0,0,0,0,0,0,0,0,0,0,0,0,0,0,1.5825,1.5826,0,1.5868,1.5869,1.5869,1.586,1.5859,1.5859,1.5858,1.5904,1.5906,1.5907,0,0,0,0,0,0,0,0,0,0,0,0,0,1.5739,1.5741,1.5825,1.5826,1.5826,1.5868,1.5869,1.5869,1.586,1.5859,1.5858,1.5858,1.5903,1.5905,1.5908,0,0,0,0,0,0,0,0,0,0,0,0,0,1.5779,1.5742,1.5825,1.5827,1.5828,1.5868,1.5869,1.5869,1.5861,1.5859,1.5858,1.5857,1.5902,1.5905,1.5908,1.595,0,0,1.5917,1.5918,0,0,0,0,0,0,0,0,1.5777,1.5782,1.5826,1.5827,1.5828,1.5858,1.5855,1.5896,1.5861,1.5848,1.5858,1.5856,1.5889,1.5893,1.5904,1.5952,1.5954,1.5917,1.5919,1.592,1.5921,0,0,0,0,0,0,0,1.5774,1.578,1.5842,1.5827,1.5828,1.5827,1.5831,1.5863,1.5875,1.5849,1.5849,1.5854,1.589,1.5901,1.5905,1.5955,1.5917,1.592,1.5922,1.5923,1.6041,1.6043,0,0,0,0,0,0,1.577,1.5778,1.5841,1.5844,1.5799,1.5829,1.5834,1.5849,1.5875,1.5877,1.5855,1.5853,1.5897,1.5902,1.5907,1.5959,1.592,1.5923,1.5925,1.604,1.6042,1.6043,0,0,0,0,0,0,1.5768,1.5776,1.5839,1.5811,1.5819,1.5832,1.5849,1.5851,1.5862,1.5879,1.5881,1.5864,1.5896,1.5902,1.594,1.596,1.5924,1.5927,1.6038,1.604,1.6042,1.6062,0,0,0,0,0,0,1.5766,1.5775,1.5791,1.5811,1.582,1.5871,1.585,1.5852,1.5867,1.5865,1.5888,1.5891,1.5896,1.5935,1.5942,1.5963,1.5929,1.6037,1.6039,1.6042,1.606,1.6065,1.6069,0,0,0,0,0,1.5763,1.5794,1.5791,1.5799,1.5839,1.5872,1.5877,1.5881,1.5869,1.5885,1.5896,1.589,1.5957,1.5939,1.5947,1.5969,1.6035,1.6039,1.6042,1.6058,1.6064,1.6069,0,0,0,0,0,0,1.5776,1.5797,1.5794,1.5833,1.5851,1.587,1.589,1.5887,1.5909,1.5907,1.5912,1.5917,1.5955,1.5966,1.5946,1.6012,1.5994,1.5999,1.6004,1.601,1.6014,1.6011,1.5932,0,0,0,0,0,1.5784,1.5807,1.5825,1.5857,1.5866,1.5877,1.5891,1.5893,1.5912,1.5919,1.5933,1.5952,1.5978,1.5994,1.6018,1.6061,1.6067,1.6081,1.6085,1.6089,1.6093,1.6119,1.6126,1.6053,1.6053,1.6053,0,0,1.5799,1.5814,1.5828,1.5861,1.5874,1.59,1.5883,1.5911,1.593,1.5924,1.596,1.5971,1.5992,1.6033,1.6052,1.6043,1.6115,1.6093,1.6096,1.6098,1.6123,1.613,1.6136,1.6056,1.6055,1.6055,0,0,1.5841,1.5854,1.5883,1.5898,1.5919,1.5926,1.5933,1.5954,1.5961,1.5997,1.5993,1.6017,1.606,1.6076,1.609,1.6139,1.6136,1.6147,1.6171,1.6196,1.6202,1.6207,1.6226,1.6233,1.6151,1.6151,1.6152,0,1.5858,1.5896,1.5899,1.5927,1.5942,1.5937,1.5968,1.5982,1.6011,1.6022,1.6011,1.6067,1.6081,1.6126,1.6138,1.6149,1.6159,1.6145,1.62,1.6206,1.6211,1.6229,1.6236,1.6153,1.6153,1.6153,1.6152,0,1.5916,1.5943,1.5964,1.5991,1.6009,1.6038,1.6047,1.6064,1.6065,1.6074,1.6111,1.6129,1.6157,1.6168,1.6168,1.6214,1.6208,1.6199,1.6181,1.6219,1.6236,1.6243,1.6155,1.6154,1.6154,1.6154,0,0,1.5967,1.5997,1.6005,1.6018,1.6042,1.6063,1.6093,1.612,1.6135,1.6156,1.6182,1.6219,1.6211,1.6227,1.623,1.6252,1.6292,1.6241,1.6241,1.6251,1.6345,1.6352,1.636,1.6289,1.6291,1.6292,1.6343,0,1.6012,1.6064,1.6069,1.6116,1.6141,1.6138,1.6164,1.6182,1.6191,1.6215,1.6225,1.6252,1.6239,1.6249,1.627,1.6282,1.6311,1.6279,1.6315,1.6316,1.6311,1.6369,1.6376,1.6424,1.635,1.6351,1.6352,0,1.6071,1.6093,1.6143,1.6165,1.6175,1.6199,1.6225,1.6247,1.6269,1.6274,1.6292,1.6293,1.6325,1.6306,1.6351,1.6329,1.6344,1.6353,1.6355,1.6359,1.6337,1.6376,1.6439,1.6446,1.6362,1.6362,1.6361,0,1.6105,1.6147,1.6183,1.6194,1.622,1.6237,1.6248,1.6268,1.6285,1.6308,1.632,1.6346,1.6361,1.6383,1.6391,1.6376,1.6437,1.6417,1.6443,1.6443,1.6457,1.6456,1.6524,1.6465,1.6465,1.6465,1.6464,0,1.6155,1.6186,1.6198,1.622,1.6255,1.6261,1.6296,1.6307,1.6325,1.635,1.6349,1.6373,1.6381,1.6407,1.6414,1.6451,1.6458,1.6464,1.6466,1.6465,1.6464,1.6475,1.6473,1.6467,1.6466,1.6466,1.6465,0,1.6199,1.6208,1.6247,1.6268,1.6275,1.63,1.6319,1.6341,1.635,1.6382,1.639,1.6405,1.6435,1.6445,1.6482,1.6486,1.6531,1.6529,1.6523,1.6524,1.655,1.6547,1.6628,1.664,1.6572,1.6573,1.6573,0,1.623,1.6254,1.6279,1.6295,1.6308,1.6334,1.6351,1.6358,1.6376,1.6403,1.6423,1.6453,1.6477,1.6526,1.6541,1.6569,1.6569,1.6595,1.6573,1.6572,1.6571,1.657,1.6573,1.66,1.66,1.6601,1.6601,0,1.6286,1.629,1.6314,1.6341,1.6362,1.6383,1.6404,1.6418,1.6428,1.6449,1.6479,1.6498,1.6536,1.6567,1.6596,1.661,1.6608,1.6608,1.6616,1.6616,1.6612,1.6616,1.6536,1.6606,1.6606,1.6605,1.6605,1.6605,1.6325,1.6347,1.6368,1.6396,1.6412,1.6432,1.6454,1.6467,1.6492,1.6523,1.6526,1.656,1.6583,1.6622,1.6637,1.6664,1.6657,1.6668,1.6671,1.6674,1.6676,1.6607,1.667,1.6669,1.6669,1.6669,1.6669,0,1.6382,1.6396,1.6421,1.6451,1.6473,1.6469,1.6492,1.6511,1.6541,1.6562,1.6586,1.6623,1.6653,1.667,1.67,1.6719,1.6719,1.6727,1.6726,1.673,1.668,1.6671,1.6727,1.6727,1.6727,1.6727,1.6727,1.6727,1.6414,1.6451,1.6458,1.6503,1.6517,1.655,1.6564,1.6583,1.6599,1.664,1.6665,1.6676,1.6696,1.6728,1.6756,1.6761,1.6772,1.6781,1.6785,1.6739,1.6733,1.6727,1.6719,1.6783,1.6783,1.6833,1.6833,1.6833]}]]